[[{"header":{"parameterUnit":"m.s-1","parameterCategory":1,"la1":30.2991,"la2":30.254,"lo1":-89.0895,"lo2":-89.0444,"dy":0.0017,"dx":0.0017,"nx":28,"ny":28,"refTime":"2024-03-09T03:00:00:Z","depth":0,"parameterNumber":2,"parameterNumberName":"U-component_of_WINDS"},"data":[0,0,0,0,0,0,0,0,0,0,0,0,0,0,0,0,0,0,0,0,0,0,0,0,0,0,0,0,0,0,0,0,0,0,0,0,0,0,0,0,0,0,0,0,0,0,0,0,0,0,0,0,0,0,0,0,0,0,1.8241,1.8242,0,1.8368,1.8369,1.8371,1.8381,1.838,1.8378,1.8377,1.8511,1.8515,1.852,0,0,0,0,0,0,0,0,0,0,0,0,0,1.8014,1.8018,1.8241,1.8242,1.8244,1.8367,1.8369,1.8371,1.8381,1.838,1.8378,1.8376,1.8509,1.8515,1.8521,0,0,0,0,0,0,0,0,0,0,0,0,0,1.8124,1.802,1.824,1.8264,1.8267,1.8367,1.8369,1.8371,1.8382,1.8379,1.8377,1.8375,1.8507,1.8514,1.8521,1.8608,0,0,1.8544,1.8547,0,0,0,0,0,0,0,0,1.8118,1.8132,1.8259,1.8262,1.8266,1.8356,1.8338,1.8451,1.8382,1.8338,1.8377,1.8374,1.8461,1.8472,1.8501,1.8614,1.862,1.8544,1.8549,1.8552,1.8554,0,0,0,0,0,0,0,1.811,1.8127,1.8291,1.8261,1.8265,1.827,1.8284,1.836,1.841,1.8342,1.8343,1.8358,1.8463,1.8493,1.8504,1.8622,1.8544,1.855,1.8555,1.8558,1.8818,1.8821,0,0,0,0,0,0,1.8097,1.8121,1.8287,1.8295,1.8185,1.8276,1.8291,1.833,1.8409,1.8419,1.8359,1.8358,1.8482,1.8495,1.8508,1.8618,1.8552,1.8558,1.8563,1.8816,1.8819,1.8821,0,0,0,0,0,0,1.8092,1.8112,1.8282,1.8208,1.823,1.8282,1.8326,1.8333,1.8364,1.8422,1.8432,1.8381,1.8481,1.8498,1.8584,1.8623,1.8562,1.8568,1.8813,1.8816,1.882,1.8836,0,0,0,0,0,0,1.8086,1.811,1.8142,1.8209,1.8234,1.8353,1.8328,1.8337,1.8376,1.8375,1.8445,1.8455,1.8481,1.8573,1.8591,1.8632,1.8574,1.8809,1.8814,1.8819,1.8833,1.884,1.8847,0,0,0,0,0,1.8078,1.8141,1.8143,1.8163,1.8274,1.8355,1.837,1.8397,1.8379,1.8412,1.8451,1.8452,1.8616,1.8582,1.8602,1.8646,1.8807,1.8813,1.8818,1.8829,1.8839,1.8847,0,0,0,0,0,0,1.8077,1.815,1.8153,1.8239,1.8291,1.8357,1.8399,1.8406,1.8464,1.8461,1.8494,1.851,1.8596,1.8629,1.859,1.8736,1.871,1.872,1.8711,1.872,1.8727,1.8718,1.858,0,0,0,0,0,1.8087,1.8145,1.8206,1.8276,1.8302,1.8347,1.8383,1.84,1.8455,1.8477,1.8522,1.8577,1.8641,1.8682,1.8744,1.8838,1.8855,1.8878,1.8885,1.8891,1.89,1.8956,1.8968,1.884,1.884,1.884,0,0,1.8108,1.8155,1.8189,1.8278,1.832,1.8382,1.8365,1.843,1.8477,1.8488,1.8572,1.8607,1.8671,1.8762,1.8804,1.8792,1.8939,1.8898,1.8902,1.8908,1.8964,1.8976,1.8986,1.8844,1.8843,1.8843,0,0,1.8178,1.8218,1.8283,1.8326,1.839,1.842,1.8436,1.8502,1.8525,1.861,1.8621,1.8679,1.8787,1.8834,1.8871,1.8965,1.897,1.8984,1.9022,1.9077,1.9087,1.9096,1.9133,1.9145,1.8992,1.8992,1.8993,0,1.8196,1.8288,1.8316,1.8382,1.8423,1.8435,1.8503,1.8544,1.8626,1.8654,1.864,1.878,1.8823,1.8928,1.8951,1.898,1.9002,1.8976,1.9083,1.9092,1.9101,1.9137,1.915,1.8994,1.8994,1.8994,1.8993,0,1.831,1.8374,1.8419,1.8498,1.8543,1.861,1.865,1.8694,1.8708,1.874,1.883,1.8883,1.8958,1.8984,1.8998,1.9092,1.9083,1.9075,1.905,1.9115,1.9149,1.9162,1.8996,1.8996,1.8995,1.8995,0,0,1.8381,1.8477,1.8493,1.8531,1.8605,1.8656,1.8725,1.8798,1.8837,1.8894,1.8955,1.9049,1.9044,1.9087,1.9107,1.9155,1.923,1.9142,1.9144,1.9159,1.9342,1.9349,1.9364,1.9234,1.9237,1.9239,1.9338,0,1.8462,1.8584,1.8613,1.8719,1.8781,1.8796,1.8857,1.8911,1.8944,1.9003,1.9041,1.9108,1.9094,1.9121,1.9169,1.9211,1.9268,1.9204,1.9295,1.9298,1.928,1.9381,1.9388,1.9478,1.9351,1.9353,1.9355,0,1.8571,1.8631,1.8743,1.8813,1.884,1.8894,1.8967,1.9022,1.9085,1.9106,1.9157,1.9173,1.925,1.922,1.9328,1.9284,1.9324,1.9351,1.9355,1.9366,1.9331,1.9397,1.9507,1.9522,1.9375,1.9374,1.9372,0,1.8616,1.8725,1.8807,1.8839,1.8921,1.896,1.8996,1.9057,1.9101,1.9164,1.9194,1.9266,1.9306,1.9362,1.94,1.9374,1.9507,1.9479,1.953,1.9529,1.9557,1.9555,1.9678,1.9579,1.9579,1.9579,1.9578,0,1.8704,1.8773,1.8829,1.888,1.8959,1.8993,1.9072,1.9109,1.9164,1.9224,1.9242,1.9299,1.9343,1.9408,1.9438,1.9526,1.9543,1.9565,1.9572,1.9564,1.9562,1.9591,1.9587,1.9582,1.9582,1.9581,1.958,0,1.8767,1.8807,1.8899,1.897,1.899,1.9046,1.9108,1.916,1.9195,1.9272,1.9292,1.9348,1.9425,1.9467,1.9564,1.9584,1.9684,1.9686,1.9662,1.9666,1.9715,1.9711,1.9863,1.9886,1.977,1.9771,1.9771,0,1.8822,1.8875,1.8953,1.8995,1.9032,1.9099,1.9144,1.9181,1.9228,1.9307,1.935,1.9428,1.9493,1.9616,1.9667,1.9742,1.9749,1.9797,1.976,1.9753,1.9754,1.9751,1.9759,1.9804,1.9805,1.9806,1.9806,0,1.8915,1.8933,1.8997,1.9069,1.9123,1.9181,1.9239,1.9273,1.9321,1.9374,1.9453,1.9503,1.9603,1.9682,1.9762,1.9803,1.9815,1.9818,1.9834,1.9827,1.9813,1.9825,1.9682,1.9814,1.9813,1.9813,1.9812,1.9812,1.8978,1.9028,1.9092,1.9163,1.9211,1.9267,1.932,1.9362,1.9428,1.9512,1.9531,1.9616,1.9682,1.9791,1.9835,1.9904,1.9895,1.9918,1.9924,1.993,1.9933,1.98,1.9918,1.9918,1.9918,1.9918,1.9918,0,1.9075,1.9117,1.9183,1.9265,1.9322,1.9327,1.9393,1.9442,1.9516,1.9576,1.964,1.9734,1.9811,1.9869,1.995,1.9994,2.0002,2.0015,2.0013,2.0023,1.9935,1.9914,2.0007,2.0007,2.0007,2.0007,2.0007,2.0007,1.9132,1.9218,1.9245,1.9357,1.94,1.9482,1.952,1.9573,1.9621,1.9725,1.9789,1.9826,1.9888,1.9973,2.0047,2.0062,2.0092,2.0105,2.0121,2.0038,2.0029,2.0019,2.0,2.011,2.0111,2.0204,2.0205,2.0206]},{"header":{"parameterUnit":"m.s-1","parameterCategory":1,"la1":30.2991,"la2":30.254,"lo1":-89.0895,"lo2":-89.0444,"dy":0.0017,"dx":0.0017,"nx":28,"ny":28,"refTime":"2024-03-09T03:00:00:Z","depth":0,"parameterNumber":3,"parameterNumberName":"V-component_of_WINDS"},"data":[0,0,0,0,0,0,0,0,0,0,0,0,0,0,0,0,0,0,0,0,0,0,0,0,0,0,0,0,0,0,0,0,0,0,0,0,0,0,0,0,0,0,0,0,0,0,0,0,0,0,0,0,0,0,0,0,0,0,-4.6394,-4.6394,0,-4.6385,-4.6385,-4.6385,-4.6367,-4.6367,-4.6366,-4.6366,-4.6356,-4.6356,-4.6356,0,0,0,0,0,0,0,0,0,0,0,0,0,-4.6393,-4.6393,-4.6394,-4.6394,-4.6394,-4.6385,-4.6385,-4.6385,-4.6367,-4.6367,-4.6366,-4.6366,-4.6356,-4.6356,-4.6356,0,0,0,0,0,0,0,0,0,0,0,0,0,-4.639,-4.6393,-4.6394,-4.6384,-4.6383,-4.6385,-4.6385,-4.6385,-4.6367,-4.6367,-4.6366,-4.6366,-4.6356,-4.6356,-4.6356,-4.6367,0,0,-4.6356,-4.6356,0,0,0,0,0,0,0,0,-4.639,-4.639,-4.6385,-4.6384,-4.6383,-4.6377,-4.6381,-4.6379,-4.6367,-4.6373,-4.6366,-4.6365,-4.6363,-4.6363,-4.6362,-4.6367,-4.6366,-4.6356,-4.6356,-4.6356,-4.6356,0,0,0,0,0,0,0,-4.639,-4.639,-4.639,-4.6385,-4.6384,-4.6379,-4.6378,-4.6381,-4.6371,-4.6373,-4.6371,-4.6371,-4.6362,-4.6362,-4.6362,-4.6366,-4.6356,-4.6356,-4.6356,-4.6356,-4.6378,-4.6378,0,0,0,0,0,0,-4.6392,-4.639,-4.6391,-4.639,-4.6385,-4.6379,-4.6378,-4.6379,-4.6371,-4.6369,-4.6371,-4.637,-4.6362,-4.6362,-4.6361,-4.6372,-4.6356,-4.6356,-4.6357,-4.6377,-4.6378,-4.6378,0,0,0,0,0,0,-4.6392,-4.6392,-4.6391,-4.639,-4.6389,-4.638,-4.6381,-4.6379,-4.6379,-4.637,-4.6368,-4.6372,-4.6362,-4.6361,-4.6366,-4.6372,-4.6357,-4.6357,-4.6376,-4.6377,-4.6378,-4.6396,0,0,0,0,0,0,-4.6392,-4.6392,-4.6397,-4.639,-4.6389,-4.6396,-4.6382,-4.638,-4.6379,-4.6378,-4.6371,-4.6369,-4.6361,-4.6365,-4.6366,-4.6372,-4.6357,-4.6376,-4.6377,-4.6378,-4.6394,-4.6397,-4.6399,0,0,0,0,0,-4.6392,-4.6403,-4.6397,-4.6398,-4.6395,-4.6397,-4.6396,-4.6387,-4.638,-4.6384,-4.6378,-4.6369,-4.6371,-4.6366,-4.6366,-4.6372,-4.6375,-4.6376,-4.6378,-4.6393,-4.6396,-4.6399,0,0,0,0,0,0,-4.6411,-4.6402,-4.6396,-4.6404,-4.6401,-4.6394,-4.6399,-4.6391,-4.639,-4.6388,-4.6377,-4.6375,-4.6381,-4.6377,-4.6371,-4.6382,-4.6372,-4.6373,-4.6384,-4.6387,-4.6389,-4.6389,-4.6357,0,0,0,0,0,-4.6416,-4.6418,-4.641,-4.6418,-4.6417,-4.6408,-4.6408,-4.6402,-4.6398,-4.6397,-4.6391,-4.6387,-4.6387,-4.6387,-4.6386,-4.6394,-4.6391,-4.6398,-4.6401,-4.6402,-4.6403,-4.6406,-4.6408,-4.6382,-4.6382,-4.6382,0,0,-4.6426,-4.6421,-4.6424,-4.6422,-4.6419,-4.642,-4.6407,-4.641,-4.6411,-4.6397,-4.64,-4.6396,-4.6391,-4.6397,-4.6399,-4.6394,-4.641,-4.6404,-4.6406,-4.6405,-4.6407,-4.6409,-4.6412,-4.6383,-4.6383,-4.6382,0,0,-4.6446,-4.6443,-4.6449,-4.6446,-4.6441,-4.6435,-4.6437,-4.643,-4.6426,-4.643,-4.6419,-4.6419,-4.6419,-4.6416,-4.6414,-4.6431,-4.6422,-4.6431,-4.6443,-4.6445,-4.6447,-4.6449,-4.6453,-4.6455,-4.6432,-4.6432,-4.6432,0,-4.6459,-4.6462,-4.6453,-4.6456,-4.6455,-4.6442,-4.6447,-4.6445,-4.644,-4.6439,-4.6434,-4.6432,-4.6428,-4.6432,-4.6436,-4.6436,-4.6436,-4.6431,-4.6448,-4.6449,-4.6451,-4.6455,-4.6457,-4.6433,-4.6433,-4.6433,-4.6433,0,-4.6478,-4.648,-4.6485,-4.648,-4.648,-4.6484,-4.6475,-4.6475,-4.6469,-4.6463,-4.6465,-4.646,-4.6457,-4.6458,-4.6451,-4.646,-4.6457,-4.645,-4.6439,-4.6454,-4.6458,-4.646,-4.6435,-4.6434,-4.6434,-4.6434,0,0,-4.6508,-4.6498,-4.65,-4.6497,-4.6491,-4.6492,-4.6495,-4.6493,-4.6492,-4.649,-4.6491,-4.6491,-4.6483,-4.6481,-4.6474,-4.6477,-4.6488,-4.6469,-4.6468,-4.6471,-4.6496,-4.6501,-4.6503,-4.6483,-4.6483,-4.6484,-4.6496,0,-4.6525,-4.653,-4.6522,-4.6528,-4.6529,-4.6517,-4.6519,-4.6515,-4.651,-4.6509,-4.6503,-4.6502,-4.6493,-4.6492,-4.6494,-4.6487,-4.6493,-4.6486,-4.6483,-4.6483,-4.6483,-4.6505,-4.651,-4.6523,-4.6498,-4.6498,-4.6498,0,-4.6546,-4.6543,-4.655,-4.6542,-4.6542,-4.6545,-4.6541,-4.6541,-4.6535,-4.6531,-4.6528,-4.652,-4.6521,-4.6512,-4.6512,-4.6508,-4.6506,-4.6502,-4.6502,-4.6501,-4.6491,-4.6503,-4.6526,-4.6528,-4.6501,-4.65,-4.65,0,-4.6565,-4.6564,-4.6568,-4.6566,-4.6557,-4.6559,-4.6555,-4.6549,-4.6548,-4.6544,-4.6543,-4.654,-4.6538,-4.6535,-4.6525,-4.652,-4.6527,-4.6517,-4.6522,-4.6522,-4.6523,-4.6523,-4.6546,-4.6524,-4.6524,-4.6524,-4.6524,0,-4.6584,-4.6589,-4.6576,-4.6578,-4.6582,-4.6572,-4.6576,-4.6571,-4.6565,-4.6565,-4.6555,-4.6555,-4.6543,-4.6542,-4.6534,-4.6535,-4.6535,-4.653,-4.6528,-4.6531,-4.6531,-4.6529,-4.6527,-4.6525,-4.6525,-4.6525,-4.6524,0,-4.6607,-4.6599,-4.6601,-4.6593,-4.6591,-4.6594,-4.6586,-4.6587,-4.658,-4.658,-4.658,-4.657,-4.6567,-4.6558,-4.6553,-4.6548,-4.6551,-4.6547,-4.6553,-4.6551,-4.6556,-4.6555,-4.6577,-4.6579,-4.6557,-4.6558,-4.6558,0,-4.6619,-4.6622,-4.6613,-4.6613,-4.6609,-4.6609,-4.6607,-4.6597,-4.6596,-4.6589,-4.659,-4.6587,-4.6584,-4.658,-4.6572,-4.6568,-4.6564,-4.6571,-4.6563,-4.6565,-4.6562,-4.6562,-4.6561,-4.6573,-4.6573,-4.6573,-4.6574,0,-4.664,-4.6636,-4.6635,-4.6631,-4.663,-4.6626,-4.6623,-4.6622,-4.6611,-4.661,-4.6607,-4.6605,-4.66,-4.6596,-4.6591,-4.6586,-4.6577,-4.6577,-4.6577,-4.6579,-4.6582,-4.6579,-4.6556,-4.6576,-4.6576,-4.6575,-4.6575,-4.6575,-4.6657,-4.6658,-4.6652,-4.665,-4.6646,-4.6643,-4.6643,-4.6637,-4.6634,-4.663,-4.6624,-4.6622,-4.6615,-4.6607,-4.6603,-4.66,-4.6596,-4.6597,-4.6597,-4.6597,-4.6598,-4.6583,-4.6599,-4.6599,-4.6599,-4.6599,-4.6599,0,-4.6677,-4.6672,-4.6671,-4.6665,-4.6664,-4.6657,-4.6652,-4.665,-4.6649,-4.6644,-4.6641,-4.6637,-4.6633,-4.6625,-4.662,-4.6619,-4.6615,-4.6618,-4.6618,-4.6616,-4.6603,-4.6602,-4.6622,-4.6622,-4.6622,-4.6622,-4.6622,-4.6622,-4.6687,-4.6688,-4.6683,-4.6682,-4.6678,-4.6676,-4.6673,-4.6669,-4.6665,-4.6662,-4.6659,-4.6653,-4.6646,-4.6641,-4.6636,-4.6634,-4.6632,-4.6636,-4.6632,-4.662,-4.6617,-4.6615,-4.6615,-4.6636,-4.6636,-4.6646,-4.6646,-4.6646]}]]